Location: Carson
(33.8314°N, 118.2820°W)
Time: 14:00:45
(UTC+00:00)

CZ-4B R/B - Pass Details

Date: 23 November 2020
Orbit: 485 x 652 km, 97.9° (Epoch: 21 January)

Event Time Altitude Azimuth Distance (km) Brightness Sun altitude
Rises 13:03:51 0° 11° (N) 2,979 6.5 -18.4°
Reaches altitude 10° 13:06:05 10° 11° (N) 2,064 5.7 -18.0°
Maximum altitude 13:10:37 85° 285° (WNW) 655 3.0 -17.1°
Drops below altitude 10° 13:15:03 10° 195° (SSW) 2,013 5.7 -16.2°
Sets 13:17:12 0° 195° (SSW) 2,899 6.5 -15.7°
